Location: Br�mes
(50.8548°N, 1.9769°E)
Time: 13:58:10
(UTC+00:00)

Daily predictions for brighter satellites

Satellite Brightness Start Highest point End
(mag) Time Altitude Azimuth Time Altitude Azimuth Time Altitude Azimuth
SL-08 ROCKET BODY 4.5 18:48:09 10° N 18:54:20 82° E 19:00:23 10° SSE
Cosmos 1269 Rocket 4.4 18:49:52 10° S 18:54:49 42° ESE 18:59:49 10° NE
STARLINK-1187 3.2 18:51:52 10° SW 18:54:55 50° SSE 18:57:58 10° ENE
STARLINK-1188 3.2 18:51:59 10° SW 18:54:59 46° SSE 18:58:00 10° ENE
STARLINK-1198 3.2 18:51:59 10° SW 18:54:59 46° SSE 18:58:00 10° ENE
MONITOR-E 4.5 18:53:09 10° SE 18:55:35 34° ENE 18:58:03 10° N
STARLINK-1235 3.0 18:52:31 10° SW 18:55:36 56° SSE 18:58:43 10° ENE
CZ-4C R/B 3.8 18:50:36 10° W 18:55:43 36° NNW 19:01:47 10° NE
STARLINK-1199 3.2 18:53:53 10° SW 18:56:56 47° SSE 18:59:58 10° ENE
STARLINK-1191 3.2 18:54:20 10° SW 18:57:22 48° SSE 19:00:25 10° ENE
STARLINK-1210 3.2 18:54:48 10° SW 18:57:50 48° SSE 19:00:53 10° ENE
STARLINK-1102 3.7 18:53:47 10° WNW 18:57:57 78° NNE 19:02:06 10° ESE
STARLINK-1221 3.2 18:55:14 10° SW 18:58:17 49° SSE 19:01:20 10° ENE
STARLINK-1219 3.2 18:55:42 10° SW 18:58:44 49° SSE 19:01:48 10° ENE
ISS -3.7 18:55:48 10° W 18:59:10 81° N 19:02:32 10° E
STARLINK-1222 3.2 18:56:09 10° SW 18:59:11 49° SSE 19:02:14 10° ENE
STARLINK-1211 3.2 18:56:36 10° SW 18:59:37 49° SSE 19:02:42 10° ENE
STARLINK-1214 3.2 18:57:02 10° SW 19:00:04 50° SSE 19:03:08 10° ENE
YAOGAN 1 4.3 18:56:29 10° SSW 19:00:31 38° W 19:04:35 10° NNW
STARLINK-1245 3.1 18:57:30 10° SW 19:00:32 50° SSE 19:03:34 10° ENE
Cosmos 2297 3.7 18:54:51 10° NNW 19:00:34 80° ENE 19:06:15 10° SSE
STARLINK-1094 4.3 18:56:50 10° WNW 19:00:45 48° SSW 19:04:39 10° SE
STARLINK-1238 3.1 18:57:54 10° SW 19:00:57 51° SSE 19:04:01 10° ENE
STARLINK-1269 4.1 18:57:36 10° SW 19:01:26 40° SSE 19:05:16 10° ENE
STARLINK-1205 3.1 18:58:48 10° SW 19:01:51 51° SSE 19:04:54 10° ENE
BREEZE-M DEB (TANK) 4.3 18:51:46 10° W 19:01:51 81° S 19:05:15 10° E
STARLINK-1204 3.1 18:59:17 10° SW 19:02:19 51° SSE 19:05:23 10° ENE
Cosmos 2084 Rocket 4.1 18:58:17 10° NW 19:02:36 45° NE 19:06:55 10° ESE
Cosmos 1455 Rocket 3.1 18:58:29 10° S 19:02:45 60° E 19:07:04 10° NNE
STARLINK-1111 3.7 18:58:47 10° WNW 19:02:57 80° NNE 19:07:06 10° ESE
STARLINK-1117 4.4 19:01:42 10° WNW 19:05:35 45° SSW 19:09:27 10° SE
STARLINK-1200 4.0 19:02:21 10° SW 19:06:14 43° SSE 19:10:06 10° ENE
S3M 4.1 19:00:22 10° S 19:06:45 87° E 19:13:13 10° N
Cosmos 2237 Rocket 2.3 19:01:31 10° SSW 19:07:10 82° WNW 19:12:51 10° NNE
Cosmos 1892 Rocket 4.1 19:03:10 10° NNW 19:07:39 67° W 19:12:05 10° S
STARLINK-1073 3.6 19:03:46 10° WNW 19:07:56 83° NNE 19:11:53 11° ESE
CZ-2C R/B 3.8 19:04:21 10° NE 19:08:04 19° E 19:11:45 10° SE
Cosmos 1626 Rocket 3.8 19:04:07 10° N 19:08:26 48° ENE 19:12:39 10° SSE
STARLINK-1078 4.5 19:06:09 10° WNW 19:10:00 43° SSW 19:13:51 10° SE
NOSS 2-1 (C) 3.9 19:06:47 10° WSW 19:10:08 53° NW 19:13:58 10° NE
Cosmos 1805 3.6 19:07:03 10° SSW 19:10:57 71° W 19:14:52 10° N
STARLINK-1192 3.9 19:07:03 10° SW 19:10:58 46° SSE 19:14:53 10° ENE
Cosmos 2278 Rocket 4.1 19:06:21 10° NW 19:11:17 31° WSW 19:16:11 10° SSW
Meteor 2-5 Rocket 4.4 19:06:21 10° NNW 19:11:57 61° W 19:17:25 10° S
STARLINK-1121 3.6 19:08:44 10° WNW 19:12:54 86° NNE 19:16:39 12° ESE
NOSS 2-1 (D) 4.1 19:11:02 10° WSW 19:14:22 48° NW 19:18:11 10° NE
Cosmos 292 Rocket 4.5 19:09:55 10° NNW 19:14:22 37° NE 19:18:32 11° ESE
STARLINK-1244 3.9 19:11:56 10° SW 19:15:52 48° SSE 19:19:49 10° ENE
Cosmos 1602 Rocket 3.9 19:12:05 10° N 19:16:25 46° ENE 19:20:41 10° SSE
ARGOS 3.1 19:11:33 10° SSE 19:16:57 76° ENE 19:22:21 10° NNW
STARLINK-1106 3.6 19:13:42 10° WNW 19:17:52 89° NNE 19:21:25 14° ESE
Okean 1-7 Rocket 4.2 19:15:19 10° NNW 19:19:40 59° W 19:23:58 10° S
STARLINK-1138 3.8 19:16:29 10° SW 19:20:27 51° SSE 19:24:26 10° ENE
STARLINK-1234 2.6 19:18:22 10° WSW 19:21:20 81° SSE 19:24:04 12° ENE
MOS 1 Rocket 4.5 19:18:10 10° NE 19:22:34 27° E 19:27:05 10° SSE
STARLINK-1112 3.6 19:18:43 10° WNW 19:22:53 88° SSW 19:26:14 15° ESE
Cosmos 494 Rocket 4.0 19:17:58 10° SSW 19:23:07 88° WNW 19:28:22 10° NNE
Meteor 1-24 Rocket 4.1 19:17:43 10° NNW 19:23:14 65° W 19:28:32 10° S
USA 186 2.0 19:20:42 10° S 19:24:09 83° W 19:27:31 10° NNW
STARLINK-1143 3.7 19:21:20 10° SW 19:25:20 54° SSE 19:29:16 10° ENE
MetOp-A 4.3 19:22:26 10° SE 19:27:40 56° ENE 19:32:54 10° N
STARLINK-1128 3.6 19:23:41 10° WNW 19:27:51 85° SSW 19:31:01 17° ESE
CZ-2C R/B 3.0 19:24:20 10° SSE 19:29:22 83° WSW 19:34:13 10° NNW
Cosmos 1544 Rocket 3.5 19:25:55 10° S 19:30:20 85° E 19:34:49 10° NNE
Cosmos 1437 4.2 19:28:23 10° NNE 19:30:39 19° ENE 19:31:24 18° E
Cosmos 1470 2.8 19:28:33 10° S 19:32:20 56° E 19:36:11 10° NNE
STARLINK-1113 3.6 19:28:40 10° WNW 19:32:49 81° SSW 19:35:47 18° ESE
STARLINK-1241 3.6 19:29:38 10° SW 19:33:38 60° SSE 19:37:13 13° ENE
Cosmos 1825 Rocket 4.5 19:31:26 10° N 19:35:23 31° ENE 19:37:53 18° ESE
SPOT 3 Rocket 3.6 19:30:55 10° SSE 19:36:06 70° ENE 19:41:19 10° NNW
STARLINK-1119 3.6 19:33:39 10° WNW 19:37:47 78° SSW 19:40:34 20° ESE
STARLINK-1239 3.5 19:34:33 10° SW 19:38:33 64° SSE 19:41:56 14° ENE
Cosmos 2369 Rocket 2.4 19:33:17 10° NNW 19:38:56 57° NE 19:43:14 17° SE
SJ-6B 3.1 19:38:10 10° S 19:42:15 73° WSW 19:46:24 10° NNW
STARLINK-1114 3.7 19:38:40 10° WNW 19:42:49 74° SSW 19:45:24 22° ESE
STARLINK-1240 3.5 19:39:14 10° WSW 19:43:16 67° SSE 19:46:29 15° ENE
Cosmos 1733 4.3 19:39:41 10° SSW 19:43:19 46° WNW 19:47:00 10° N
Cosmos 1726 3.1 19:42:56 22° ESE 19:44:10 26° E 19:47:21 10° NNE
Aureole 2 Rocket 2.7 19:40:46 10° NNW 19:44:12 48° ENE 19:45:56 25° SE
Cosmos 1758 Rocket 4.0 19:41:05 10° N 19:45:16 43° ENE 19:47:54 20° SE
Ariane Rocket 4.1 19:40:31 10° S 19:45:24 46° W 19:50:18 10° NNW
Cosmos 1758 3.3 19:42:14 10° S 19:46:19 74° E 19:50:25 10° NNE
STARLINK-1130 (DARKSAT) 3.7 19:43:38 10° WNW 19:47:46 71° SSW 19:50:10 24° SE
STARLINK-1216 3.5 19:43:58 10° WSW 19:48:00 71° SSE 19:51:02 17° ENE
CZ-2C R/B 3.8 19:43:46 10° NNE 19:48:31 61° ESE 19:53:10 10° S
ATLAS CENTAUR R/B 4.1 19:47:49 10° NW 19:50:02 14° NNW 19:52:10 10° NNE
STARLINK-1209 2.8 19:48:21 10° W 19:51:17 72° NNW 19:52:50 25° ENE
Cosmos 1953 Rocket 4.5 19:47:42 10° N 19:51:42 31° ENE 19:53:22 24° ESE
STARLINK-1084 3.7 19:48:36 10° WNW 19:52:43 67° SSW 19:54:56 26° SE
STARLINK-1237 3.5 19:48:43 10° WSW 19:52:46 74° SSE 19:55:38 19° ENE
STARLINK-1228 2.8 19:50:33 10° W 19:53:26 70° NNW 19:54:50 27° ENE
Cosmos 2184 Rocket 4.1 19:48:04 10° N 19:54:22 60° ENE 19:59:37 15° SSE
IRIDIUM 106 4.3 19:49:23 10° N 19:54:38 73° E 19:59:50 10° S
Terra 3.8 19:53:53 12° ENE 19:55:12 14° NE 19:57:34 10° NNE
STARLINK-1202 3.5 19:53:27 10° WSW 19:57:30 78° SSE 20:00:11 20° ENE
STARLINK-1098 3.8 19:53:35 10° WNW 19:57:42 64° SSW 19:59:43 28° SE
Spot 2 Rocket 4.1 19:55:41 23° ESE 19:58:17 39° ENE 20:03:02 10° N
Cosmos 1606 Rocket 4.3 19:59:07 27° ESE 20:00:24 32° E 20:04:22 10° NNE
Cosmos 1943 Rocket 2.2 19:54:50 10° NNW 20:00:24 85° WSW 20:04:35 18° SSE
Meteor 1-21 Rocket 4.1 19:55:19 10° NNW 20:00:56 86° ENE 20:06:08 12° SSE
ERBS 3.8 19:58:44 10° W 20:01:52 34° NNW 20:04:36 12° NE
STARLINK-1123 3.8 19:58:34 10° WNW 20:02:40 60° SSW 20:04:30 30° SE
Cosmos 1943 3.9 20:01:04 17° SSE 20:04:27 30° ESE 20:09:19 10° NE
STARLINK-67 2.9 20:02:07 10° W 20:04:40 54° N 20:05:16 41° NE
STARLINK-1246 3.5 20:00:37 10° WSW 20:04:43 83° SSE 20:07:11 23° ENE
SL-8 R/B 3.8 20:00:40 10° W 20:05:23 62° S 20:07:34 30° ESE
Meteor 2-10 4.2 20:01:35 10° S 20:06:47 53° E 20:12:11 10° NNE
STARLINK-1201 3.1 20:04:05 10° W 20:07:21 75° NNW 20:08:41 33° ENE
STARLINK-1097 3.9 20:03:33 10° WNW 20:07:37 57° SSW 20:09:16 32° SE
Cosmos 1626 4.3 20:04:39 10° NNW 20:07:49 27° W 20:10:58 10° SSW
Resurs 1-3 3.7 20:05:32 14° S 20:09:15 76° WSW 20:13:40 10° NNW
ATLAS 2AS CENTAUR R/B 3.3 20:02:16 10° NW 20:09:55 55° NE 20:14:22 24° ESE
STARLINK-1224 3.5 20:07:44 10° WSW 20:11:50 88° SSE 20:13:57 27° ENE
STARLINK-1099 4.0 20:08:33 10° WNW 20:12:36 53° SSW 20:14:04 34° SSE
STARLINK-1203 3.4 20:09:07 10° WSW 20:13:07 88° NNW 20:15:06 28° ENE
Cosmos 2315 Rocket 4.5 20:08:23 10° SSW 20:14:39 64° WNW 20:21:00 10° N
Cosmos 2154 Rocket 4.1 20:09:10 10° N 20:15:26 57° ENE 20:18:59 26° SE
USA 234 3.2 20:09:16 10° ENE 20:15:46 64° SE 20:22:15 10° SW
H-2A R/B 3.7 20:11:24 10° SSW 20:16:08 33° W 20:20:48 10° NNW
STARLINK-1225 3.5 20:12:19 10° WSW 20:16:24 89° NW 20:18:23 30° ENE
USA 245 4.4 20:15:17 31° SE 20:17:30 51° ENE 20:23:15 10° N
STARLINK-1104 4.1 20:13:32 10° WNW 20:17:34 50° SSW 20:18:51 36° SSE
DMSP B5D2-2 4.0 20:12:48 10° NNE 20:18:03 80° ESE 20:23:16 10° SSW
Aureole 3 3.8 20:14:04 10° SSW 20:18:13 81° WNW 20:23:37 10° N
Resurs 01 Rocket 1.6 20:16:28 24° SSE 20:19:09 84° WSW 20:23:36 10° NNW
Cosmos 1328 3.9 20:15:38 10° N 20:19:35 55° ENE 20:20:25 45° ESE
STARLINK-1233 3.1 20:17:14 10° W 20:20:22 66° NNW 20:21:02 48° NE
STARLINK-1212 3.1 20:17:43 10° W 20:20:50 66° N 20:21:27 49° NE
Cosmos 921 Rocket 4.4 20:17:39 10° N 20:20:58 22° NE 20:21:21 22° ENE
STARLINK-1230 3.5 20:17:05 10° WSW 20:21:10 86° NNW 20:22:57 33° ENE
STARLINK-1105 3.1 20:18:09 10° W 20:21:16 65° NNW 20:21:53 49° NE
SL-16 R/B 2.7 20:16:08 10° SW 20:21:44 61° NW 20:27:22 10° NNE
STARLINK-1206 3.1 20:18:38 10° W 20:21:45 65° NNW 20:22:19 51° NE
STARLINK-1247 3.1 20:19:05 10° W 20:22:11 65° N 20:22:44 51° NE
STARLINK-1144 4.2 20:18:32 10° WNW 20:22:32 47° SSW 20:23:38 37° SSE
STARLINK-1227 3.1 20:19:30 10° W 20:22:38 65° N 20:23:12 51° NE
Abrixas rocket 4.4 20:20:10 10° SW 20:20:46 14° SSW 20:20:46 14° SSW
STARLINK-1218 3.1 20:19:59 10° W 20:23:06 64° N 20:23:36 53° NE
Cosmos 2228 3.2 20:22:40 43° SE 20:23:28 49° E 20:27:38 10° NNE
STARLINK-1226 3.1 20:20:26 10° W 20:23:32 64° N 20:24:03 53° NE
STARLINK-1254 3.2 20:20:51 10° W 20:23:59 64° N 20:24:30 53° NE
STARLINK-1215 3.1 20:21:20 10° W 20:24:27 64° NNW 20:24:54 54° NE
STARLINK-1231 3.1 20:21:47 10° W 20:24:53 64° N 20:25:19 55° NE
STARLINK-1232 3.2 20:22:42 10° W 20:25:48 63° N 20:26:12 55° NNE
STARLINK-1243 3.5 20:21:55 10° WSW 20:26:00 84° NNW 20:27:36 36° ENE
STARLINK-1217 3.1 20:23:09 10° W 20:26:15 63° N 20:26:38 56° NNE
STARLINK-1208 3.2 20:23:33 10° W 20:26:41 63° N 20:27:05 55° NNE
STARLINK-1229 3.1 20:24:03 10° W 20:27:08 63° N 20:27:29 57° NNE
Cosmos 1953 2.4 20:23:24 10° SSW 20:27:21 74° WNW 20:31:21 10° N
STARLINK-1103 4.3 20:23:31 10° WNW 20:27:29 44° SSW 20:28:25 37° S
STARLINK-1271 3.1 20:24:29 10° W 20:27:36 63° N 20:27:56 57° NNE
STARLINK-1270 3.1 20:24:58 10° W 20:28:04 63° N 20:28:22 58° NNE
STARLINK-1154 3.1 20:25:25 10° W 20:28:31 62° N 20:28:48 58° NNE
STARLINK-1197 3.1 20:26:19 10° W 20:29:25 62° N 20:29:40 59° NNE
STARLINK-1189 3.1 20:26:46 10° W 20:29:52 62° N 20:30:06 59° NNE
Cosmos 1992 Rocket 4.3 20:24:56 10° NNW 20:30:06 64° WSW 20:33:07 25° S
STARLINK-1187 3.2 20:27:38 10° W 20:30:44 60° N 20:30:59 57° NNE
STARLINK-1198 3.1 20:27:40 10° W 20:30:46 62° N 20:30:58 59° NNE
STARLINK-1188 3.1 20:27:41 10° W 20:30:47 62° N 20:30:59 59° NNE
STARLINK-1236 3.6 20:26:42 10° WSW 20:30:48 81° NNW 20:32:12 40° ENE
STARLINK-1235 3.3 20:28:20 10° W 20:31:28 58° N 20:31:42 56° NNE
STARLINK-1101 4.3 20:28:31 10° WNW 20:32:25 41° SSW 20:33:11 37° S
STARLINK-1199 3.2 20:29:37 10° W 20:32:43 61° N 20:32:54 60° N
STARLINK-1191 3.2 20:30:04 10° W 20:33:11 61° N 20:33:19 60° N
STARLINK-1210 3.2 20:30:31 10° W 20:33:39 61° N 20:33:46 60° N
STARLINK-1221 3.2 20:30:58 10° W 20:34:05 61° N 20:34:12 60° N
Nadezhda 1 Rocket 4.0 20:29:47 19° S 20:34:23 64° E 20:40:42 10° NNE
STARLINK-1219 3.2 20:31:25 10° W 20:34:33 61° N 20:34:38 60° N
STARLINK-1222 3.2 20:31:53 10° W 20:35:00 61° N 20:35:04 60° N
STARLINK-1211 3.2 20:32:20 10° W 20:35:27 60° N 20:35:30 60° N
ISS -3.0 20:32:40 10° W 20:35:40 41° SW 20:35:40 41° SW
STARLINK-1214 3.2 20:32:47 10° W 20:35:53 60° N 20:35:56 60° N
STARLINK-1245 3.3 20:33:15 10° W 20:36:20 60° N 20:36:20 60° N
STARLINK-1238 3.3 20:33:39 10° W 20:36:46 60° N 20:36:46 60° N
STARLINK-1102 4.4 20:33:30 10° WNW 20:37:22 39° SW 20:37:58 37° SSW
STARLINK-1205 3.3 20:34:35 10° W 20:37:37 59° NNW 20:37:37 59° NNW
STARLINK-1204 3.3 20:35:04 10° W 20:38:03 59° NNW 20:38:03 59° NNW
STARLINK-1269 3.6 20:36:37 10° W 20:40:42 76° NNW 20:41:43 49° ENE
Cosmos 2058 Rocket 3.6 20:42:38 42° ENE 20:42:38 42° ENE 20:46:26 10° NNE
MetOp-B 4.1 20:40:11 34° SSE 20:42:38 86° WSW 20:48:03 10° NNW
Cosmos 1703 3.2 20:39:14 10° NNW 20:43:12 82° W 20:43:49 61° S
Cosmos 1603 3.5 20:37:51 10° SSW 20:43:26 69° ESE 20:49:03 10° NNE
Cosmos 2251 Rocket 3.5 20:39:01 10° SSW 20:44:23 86° WNW 20:49:49 10° NNE
SPOT 5 3.3 20:44:26 37° ENE 20:44:26 37° ENE 20:48:27 10° N
Meteor 1-16 Rocket 4.0 20:40:19 14° S 20:44:54 90° E 20:50:26 10° NNE
STARLINK-1200 3.7 20:41:27 10° W 20:45:32 74° NNW 20:46:21 54° NE
CZ-4C R/B 4.2 20:40:51 10° NW 20:46:03 27° N 20:52:03 10° ENE
Cosmos 2074 Rocket 4.5 20:41:44 10° NNW 20:47:53 60° W 20:53:00 15° SSW
CZ-2C R/B 2.8 20:43:44 10° N 20:48:55 70° WNW 20:54:03 10° SSW
IGS 5A 3.3 20:49:02 68° E 20:49:10 69° ENE 20:53:20 10° N
ERS-1 Rocket 3.1 20:48:38 49° E 20:49:21 53° ENE 20:54:16 10° N
STARLINK-1192 3.7 20:46:13 10° W 20:50:18 72° NNW 20:50:56 59° NE
Landsat 7 3.7 20:49:39 58° SE 20:50:32 75° ENE 20:55:18 10° NNW
STARLINK-1244 3.7 20:51:10 10° W 20:55:15 71° N 20:55:40 64° NNE
STARLINK-1234 4.5 20:53:49 10° W 20:55:44 33° WNW 20:55:44 33° WNW
STARLINK-1138 3.7 20:55:43 10° W 20:59:48 69° N 21:00:03 67° NNE
Cosmos 1656 Rocket 3.7 20:54:53 10° NNW 21:00:36 80° WSW 21:02:03 51° SSE
MOS 1 Rocket 4.3 20:56:00 10° N 21:01:03 54° WNW 21:06:16 10° SW
Meteor 1-11 4.3 20:56:40 10° NNW 21:02:30 79° W 21:04:29 43° S
STARLINK-1143 3.8 21:00:38 10° W 21:04:44 68° N 21:04:46 68° N
Aureole 1 Rocket 4.3 21:01:51 33° S 21:05:16 58° ESE 21:11:37 10° NNE
CARTOSAT-1 3.8 21:07:29 59° NE 21:07:29 59° NE 21:11:21 10° N
Cosmos 1726 Rocket 3.8 21:10:43 55° SW 21:11:28 66° WNW 21:15:55 10° N
STARLINK-1241 3.9 21:08:53 10° W 21:12:34 62° NW 21:12:34 62° NW
COSMOS 2455 3.1 21:08:08 10° NNW 21:14:05 56° NE 21:15:09 49° E
STARLINK-1239 4.1 21:13:53 10° W 21:17:22 57° NW 21:17:22 57° NW
Cosmos 1726 4.1 21:17:22 18° WSW 21:19:19 28° WNW 21:22:36 10° N
In-Cosmos 22 Rocket 4.4 21:14:13 10° N 21:19:55 55° ENE 21:20:10 54° E
Cosmos 2341 Rocket 4.0 21:14:45 10° N 21:21:09 88° W 21:22:43 55° S
Cosmos 1461 3.5 21:16:54 10° NW 21:20:56 54° NNE 21:20:56 54° NNE
Cosmos 2369 Rocket 3.7 21:17:48 10° NW 21:22:39 30° WSW 21:25:03 22° SW
STARLINK-1240 4.3 21:18:38 10° W 21:21:54 51° WNW 21:21:54 51° WNW
Cosmos 1908 4.2 21:24:02 46° WNW 21:24:02 46° WNW 21:27:35 10° N
STARLINK-1216 4.5 21:23:23 10° W 21:26:29 47° WNW 21:26:29 47° WNW
NOSS 3-4 (A) 3.7 21:21:33 10° NW 21:28:27 81° SW 21:30:09 57° SSE
NOSS 3-4 (C) 3.7 21:21:39 10° NW 21:28:34 82° SW 21:30:14 57° SSE
ATLAS CENTAUR R/B 3.9 21:28:32 10° NNW 21:30:36 13° NNE 21:31:52 12° NNE
Terra 2.0 21:32:45 65° NNE 21:32:45 65° NNE 21:36:57 10° NNW
NOSS 3-3 (A) 4.1 21:33:18 10° SW 21:39:17 73° NW 21:46:11 10° NE
NOSS 3-3 (C) 4.1 21:33:24 10° SW 21:39:24 74° NW 21:46:17 10° NE
SPOT 1/Viking Rocket 4.2 21:41:28 46° WSW 21:42:05 48° W 21:47:10 10° NNW
Cosmos 1943 Rocket 4.5 21:40:07 10° WNW 21:43:19 16° W 21:46:08 11° SW
Cosmos 1943 3.8 21:42:38 10° SW 21:48:12 56° NW 21:53:50 10° NNE
Cosmos 2218 Rocket 3.8 21:42:01 10° N 21:48:14 88° W 21:48:36 80° S
Cosmos 1340 Rocket 4.3 21:51:02 36° NNW 21:51:02 36° NNW 21:53:53 10° N
Cosmos 1140 Rocket 4.3 21:56:03 43° NNE 21:56:03 43° NNE 21:59:30 10° NNE
Resurs 01 Rocket 4.4 21:55:03 10° WSW 21:56:22 11° W 21:57:41 10° WNW
USA 234 3.5 21:52:23 10° ENE 21:58:51 65° NNW 22:05:19 10° W
Cosmos 921 Rocket 4.4 21:55:28 10° NNW 21:58:09 34° NW 21:58:09 34° NW
Cosmos 2181 Rocket 3.9 22:00:16 74° SW 22:00:46 79° W 22:07:02 10° N
ATLAS 2AS CENTAUR R/B 3.1 21:53:39 10° NW 22:01:01 54° WSW 22:01:48 52° SW
Cosmos 407 Rocket 4.0 22:06:47 57° NNW 22:06:47 57° NNW 22:11:13 10° NNE
Iridium 4 Rocket 4.4 22:05:39 10° NNW 22:08:42 37° NW 22:08:42 37° NW
Cosmos 1697 Rocket 3.8 22:05:07 10° NNW 22:10:12 33° NE 22:10:12 33° NE
Mayak 1.0 22:14:07 10° NNE 22:15:32 21° NNE 22:15:32 21° NNE
SPOT 5 4.5 22:23:39 26° WNW 22:23:39 26° WNW 22:26:25 10° NW
Cosmos 2366 rocket 4.5 22:23:00 10° NNW 22:28:54 50° W 22:28:59 50° W
Cosmos 1980 Rocket 3.5 22:30:42 10° NNW 22:35:28 30° NE 22:35:28 30° NE
CZ-4C R/B 3.7 22:30:01 10° NW 22:36:17 42° NNE 22:38:44 33° ENE
Nadezhda 3 Rocket 4.4 22:38:52 57° NE 22:38:52 57° NE 22:43:56 10° NNE
COSMOS 2455 4.1 22:54:24 10° NW 22:58:18 31° W 22:58:18 31° W
Terra 4.3 23:11:38 15° WNW 23:11:38 15° WNW 23:13:28 10° NW
ATLAS CENTAUR R/B 4.2 23:07:05 10° NNW 23:08:02 15° NNW 23:08:02 15° NNW
ATLAS 5 CENTAUR R/B 4.0 23:20:05 19° NE 23:20:05 19° NE 23:21:37 10° NE
Cosmos 1833 Rocket 4.4 23:28:31 25° NE 23:28:31 25° NE 23:30:58 10° NE
USA 234 3.9 23:35:09 10° ENE 23:41:27 53° N 23:47:45 10° WNW
Mayak 1.6 23:51:00 10° NNW 23:52:06 13° NW 23:52:06 13° NW
SL-16 R/B 4.1 23:52:44 25° ENE 23:53:55 26° NE 23:58:56 10° N
